N0MR Weather Reports


time (UTC)temp
C
wind
direction
speed
KPH
gust
KPH
rain 1hr
cm
rain 24hr
cm
rain mn
cm
humidity
%
barometer
mb
20260904022438 16 167 1.6 8.0 0.00 0.00 0.00 84 1014.7
20260904021437 16 167 1.6 8.0 0.00 0.00 0.00 84 1014.7
20260904020437 16 313 4.8 12.9 0.00 0.00 0.00 81 1012.1
20260903213633 22 85 0.0 9.7 0.00 0.00 0.00 61 1011.2
20260903212632 22 85 0.0 9.7 0.00 0.00 0.00 61 1011.2
20260903211631 23 184 0.0 9.7 0.00 0.00 0.00 60 1011.1
20260903210633 23 184 0.0 9.7 0.00 0.00 0.00 60 1011.1
20260903205633 23 82 0.0 9.7 0.00 0.00 0.00 61 1011.1
20260903204636 23 82 0.0 9.7 0.00 0.00 0.00 61 1011.1
20260903203635 22 232 4.8 9.7 0.00 0.00 0.00 61 1011.5
20260903202633 22 232 4.8 9.7 0.00 0.00 0.00 61 1011.5
20260903201633 23 339 0.0 9.7 0.00 0.00 0.00 58 1011.8
20260903200636 23 40 0.0 11.3 0.00 0.00 0.00 62 1011.5
20260903195632 23 40 0.0 11.3 0.00 0.00 0.00 62 1011.5
20260903194633 23 124 0.0 4.8 0.00 0.00 0.00 59 1011.6
20260903193636 23 124 0.0 4.8 0.00 0.00 0.00 59 1011.6
20260903192633 23 182 0.0 6.4 0.00 0.00 0.00 60 1011.8
20260903191632 23 182 0.0 6.4 0.00 0.00 0.00 60 1011.8
20260903190643 23 210 0.0 14.5 0.00 0.00 0.00 61 1011.9
20260903185633 23 210 0.0 14.5 0.00 0.00 0.00 61 1011.9
20260903184633 23 113 0.0 8.0 0.00 0.00 0.00 62 1012.3
20260903183632 23 113 0.0 8.0 0.00 0.00 0.00 62 1012.3
20260903182633 23 196 0.0 9.7 0.00 0.00 0.00 60 1012.1
20260903181635 23 196 0.0 9.7 0.00 0.00 0.00 60 1012.1
20260903180633 23 174 0.0 8.0 0.00 0.00 0.00 60 1012.3
20260903175633 23 174 0.0 8.0 0.00 0.00 0.00 60 1012.3
20260903174639 23 217 0.0 8.0 0.00 0.15 0.00 62 1012.3
20260903173634 23 217 0.0 8.0 0.00 0.15 0.00 62 1012.3
20260903172633 23 94 0.0 9.7 0.00 0.15 0.00 62 1012.4
20260903171634 23 94 0.0 9.7 0.00 0.15 0.00 62 1012.4
20260903170637 23 40 0.0 8.0 0.00 0.15 0.00 63 1012.4
20260903165640 22 34 0.0 9.7 0.00 0.15 0.00 65 1012.4
20260903164636 22 34 0.0 9.7 0.00 0.15 0.00 65 1012.4
20260903163636 22 76 0.0 8.0 0.00 0.15 0.00 65 1012.7
20260903162634 22 76 0.0 8.0 0.00 0.15 0.00 65 1012.7
20260903161634 22 102 0.0 4.8 0.00 0.15 0.00 67 1012.9
20260903160637 22 102 0.0 4.8 0.00 0.15 0.00 67 1012.9
20260903155635 21 271 0.0 6.4 0.00 0.15 0.00 71 1013.1
20260903154636 21 271 0.0 6.4 0.00 0.15 0.00 71 1013.1
20260903153635 20 156 0.0 6.4 0.00 0.15 0.00 75 1013.1
20260903152636 20 156 0.0 6.4 0.00 0.15 0.00 75 1013.1
20260903145635 17 284 0.0 6.4 0.00 0.15 0.00 86 1013.4
20260903144636 17 284 0.0 6.4 0.00 0.15 0.00 86 1013.4
20260903143633 16 250 0.0 8.0 0.00 0.15 0.00 90 1013.5
20260903142635 16 250 0.0 8.0 0.00 0.15 0.00 90 1013.5
20260903141634 16 302 0.0 6.4 0.00 0.15 0.00 97 1013.5
20260903140634 16 302 0.0 6.4 0.00 0.15 0.00 97 1013.5
20260903135638 15 234 0.0 1.6 0.00 0.15 0.00 97 1013.6
20260903120639 11 193 0.0 0.0 0.00 0.15 0.00 96 1013.0
20260903115635 11 193 0.0 0.0 0.00 0.15 0.00 96 1013.0
20260903044637 14 194 0.0 0.0 0.00 0.15 0.15 90 1012.9
20260903043647 14 194 0.0 0.0 0.00 0.15 0.15 90 1012.9
20260903042638 14 194 0.0 1.6 0.00 0.15 0.15 90 1012.7
20260903041637 15 194 0.0 0.0 0.00 0.15 0.15 89 1012.6
20260903040638 15 194 0.0 0.0 0.00 0.15 0.15 89 1012.6
20260903035638 15 194 0.0 0.0 0.00 0.15 0.15 89 1012.6
20260903034638 15 194 0.0 0.0 0.00 0.15 0.15 89 1012.6
20260903033637 15 194 0.0 0.0 0.00 0.15 0.15 88 1012.5
20260903032638 15 194 0.0 0.0 0.00 0.15 0.15 88 1012.5
20260903031637 15 194 0.0 0.0 0.00 0.15 0.15 87 1012.4
20260903030642 15 194 0.0 0.0 0.00 0.15 0.15 87 1012.4
20260903025638 15 194 0.0 0.0 0.00 0.15 0.15 87 1012.4
20260903024639 15 194 0.0 0.0 0.00 0.15 0.15 87 1012.4
20260903023638 15 194 0.0 0.0 0.00 0.15 0.15 86 1012.3